This demonstration page uses our WeatherBlox Daily Observations layout. Learn more.

Left ArrowRight Arrow

38.20091, -84.87328

Hourly Observations for July 24, 2018

Temp ( °F °C ) Dew Point ( °F °C ) Humidity (%) Winds ( mph kmh ) Pressure ( in mb ) Visibility ( mi km ) Precip ( " mm )
12:53 am 00:53 Clear 67 19.4 65 18.3 93 93 NNW 3 6 29.93 1014 8 13 0.00 0.00
1:53 am 01:53 Clear 66 18.9 65 18.3 96 96 Calm 29.92 1013 7 11 0.00 0.00
2:53 am 02:53 Clear with Mist and Fog 65 18.3 63 17.2 93 93 Calm 29.91 1013 6 10 0.00 0.00
3:53 am 03:53 Clear with Mist and Fog 64 17.8 63 17.2 96 96 Calm 29.92 1013 6 10 0.00 0.00
4:53 am 04:53 Clear 64 17.8 63 17.2 96 96 Calm 29.92 1013 8 13 0.00 0.00
5:53 am 05:53 Clear 64 17.8 62 16.7 93 93 Calm 29.95 1014 8 13 0.00 0.00
6:53 am 06:53 Sunny with Mist and Fog 63 17.2 61 16.1 93 93 Calm 29.96 1015 4 6 0.00 0.00
7:53 am 07:53 Sunny with Mist and Fog 67 19.4 64 17.8 91 91 Calm 29.96 1015 5 8 0.00 0.00
8:53 am 08:53 Sunny 70 21.1 65 18.3 84 84 NW 3 6 29.97 1015 7 11 0.00 0.00
9:53 am 09:53 Sunny 74 23.3 66 18.9 76 76 NNW 5 7 29.98 1015 10 16 0.00 0.00
10:22 am 10:22 Mostly Cloudy 74 23.3 66 18.9 76 76 NW 5 7 29.97 1015 10 16 0.00 0.00
10:37 am 10:37 Mostly Sunny 75 23.9 66 18.9 74 74 NNW 6 9 29.97 1015 10 16 0.00 0.00
10:53 am 10:53 Mostly Cloudy 77 25 66 18.9 69 69 VRB 6 9 29.99 1016 10 16 0.00 0.00
11:32 am 11:32 Partly Cloudy 77 25 66 18.9 69 69 VRB 5 7 29.97 1015 10 16 0.00 0.00
11:53 am 11:53 Partly Cloudy 80 26.7 66 18.9 62 62 NE 3 6 29.99 1016 10 16 0.00 0.00
12:53 pm 12:53 Mostly Sunny 79 26.1 66 18.9 65 65 W 5 7 29.98 1015 10 16 0.00 0.00
1:53 pm 13:53 Mostly Cloudy 80 26.7 65 18.3 60 60 NW 7 11 29.98 1015 10 16 0.00 0.00
2:53 pm 14:53 Cloudy 80 26.7 66 18.9 62 62 WNW 7 11 29.97 1015 10 16 0.00 0.00
3:53 pm 15:53 Cloudy 80 26.7 66 18.9 62 62 NW 7 11 29.96 1014 10 16 0.00 0.00
4:53 pm 16:53 Partly Cloudy 82 27.8 64 17.8 55 55 WNW 9 15 29.95 1014 10 16 0.00 0.00
5:53 pm 17:53 Mostly Sunny 82 27.8 65 18.3 56 56 WNW 9 15 29.94 1014 10 16 0.00 0.00
6:53 pm 18:53 Mostly Sunny 81 27.2 65 18.3 58 58 NNW 7 11 29.93 1013 10 16 0.00 0.00
7:53 pm 19:53 Sunny 80 26.7 65 18.3 60 60 NW 5 7 29.93 1014 10 16 0.00 0.00
8:53 pm 20:53 Sunny 75 23.9 67 19.4 76 76 Calm 29.94 1014 10 16 0.00 0.00
9:53 pm 21:53 Clear 71 21.7 67 19.4 87 87 Calm 29.96 1015 10 16 0.00 0.00
10:53 pm 22:53 Clear 70 21.1 66 18.9 87 87 Calm 29.97 1015 10 16 0.00 0.00
11:53 pm 23:53 Clear 69 20.6 66 18.9 90 90 NNW 3 6 29.97 1015 8 13 0.00 0.00

Powered by AerisWeather